Location: *
(50.2903°S, 172.5375°W)
Time: 07:22:12
(UTC+00:00)

Cosmos 1626 Rocket - Pass Details

Date: 17 November 2019
Orbit: 604 x 630 km, 82.5° (Epoch: 08 December)

Event Time Altitude Azimuth Distance (km) Brightness Sun altitude
Rises 11:58:54 0° 187° (S) 2,908 8.3 -20.1°
Reaches altitude 10° 12:01:12 10° 182° (S) 1,995 7.3 -20.0°
Maximum altitude 12:05:31 54° 104° (ESE) 754 4.1 -19.8°
Enters shadow 12:07:21 31° 42° (NE) 1,080 4.5 -19.8°
